Location: Arroyo Grande
(40.2671°N, 4.2512°W)
Time: 15:43:47
(UTC+00:00)

Timation 2 Rocket - Pass Details

Date: 03 February 2023
Orbit: 905 x 1075 km, 70.0° (Epoch: 22 March)

Event Time Altitude Azimuth Distance (km) Brightness Sun altitude
Rises 18:17:54 0° 332° (NNW) 3,622 7.2 -8.1°
Reaches altitude 10° 18:20:24 10° 331° (NNW) 2,695 6.5 -8.6°
Maximum altitude 18:26:38 71° 249° (WSW) 1,042 4.4 -9.8°
Drops below altitude 10° 18:33:08 10° 166° (SSE) 2,800 6.4 -11.0°
Sets 18:35:46 0° 164° (SSE) 3,771 7.0 -11.5°
